This is the latest recevied weather packets stored in our database for station/object KB3VSP. If no packets are shown the sender has not sent any weather packets the latest 10 day(s).
| Time | Temp. | Humidity | Pressure | Rain* | Wind** | Luminosity | Snow |
|---|---|---|---|---|---|---|---|
| 1777843382 | 15° C | 38% | 1013.5 hPa | 0 mm | - | 75 W/m² | - |
| 1777843080 | 15.56° C | 38% | 1013.7 hPa | 0 mm | - | 111 W/m² | - |
| 1777842775 | 15° C | 42% | 1013.8 hPa | 0 mm | - | 163 W/m² | - |
| 1777842475 | 15° C | 40% | 1013.7 hPa | 0 mm | - | 152 W/m² | - |
| 1777842174 | 15° C | 40% | 1013.9 hPa | 0 mm | - | 246 W/m² | - |
| 1777841868 | 15.56° C | 40% | 1014 hPa | 0 mm | - | 310 W/m² | - |
| 1777841565 | 15° C | 42% | 1013.9 hPa | 0 mm | - | 330 W/m² | - |
| 1777841261 | 14.44° C | 42% | 1014.1 hPa | 0 mm | - | 105 W/m² | - |
| 1777840959 | 13.89° C | 41% | 1014.1 hPa | 0 mm | - | 142 W/m² | - |
| 1777840657 | 13.89° C | 40% | 1014.5 hPa | 0 mm | - | 85 W/m² | - |
| 1777840354 | 14.44° C | 41% | 1014.2 hPa | 0 mm | - | 130 W/m² | - |
| 1777840051 | 14.44° C | 41% | 1014.4 hPa | 0 mm | - | 136 W/m² | - |
| 1777839749 | 15° C | 40% | 1014.6 hPa | 0 mm | - | 131 W/m² | - |
| 1777839446 | 13.89° C | 43% | 1014.5 hPa | 0 mm | - | 113 W/m² | - |
| 1777839143 | 14.44° C | 39% | 1014.5 hPa | 0 mm | - | 104 W/m² | - |
| 1777838839 | 13.89° C | 40% | 1014.4 hPa | 0 mm | - | 393 W/m² | - |
| 1777838536 | 15° C | 39% | 1014.5 hPa | 0 mm | - | 92 W/m² | - |
| 1777838233 | 15° C | 39% | 1014.6 hPa | 0 mm | - | 514 W/m² | - |
| 1777837930 | 14.44° C | 41% | 1014.7 hPa | 0 mm | - | 129 W/m² | - |
| 1777837627 | 14.44° C | 41% | 1014.8 hPa | 0 mm | - | 112 W/m² | - |
| 1777837324 | 13.89° C | 40% | 1014.7 hPa | 0 mm | - | 88 W/m² | - |
| 1777837019 | 14.44° C | 39% | 1015.1 hPa | 0 mm | - | 94 W/m² | - |
| 1777836715 | 14.44° C | 41% | 1015 hPa | 0 mm | - | 406 W/m² | - |
| 1777836412 | 14.44° C | 42% | 1014.9 hPa | 0 mm | - | 537 W/m² | - |
| 1777836107 | 13.33° C | 42% | 1015 hPa | 0 mm | - | 370 W/m² | - |
* Rain latest hour (hover to see other rain measurements)
** Current wind speed in m/s (hover to see current wind gust speed)